TimeEST,TemperatureF,Dew PointF,Humidity,Sea Level PressureIn,VisibilityMPH,Wind Direction,Wind SpeedMPH,Gust SpeedMPH,PrecipitationIn,Events,Conditions,WindDirDegrees,DateUTC
12:56 AM,28.9,21.0,72,30.20,10.0,SW,4.6,-,N/A,,Mostly Cloudy,220,2012-12-12 05:56:00
1:56 AM,28.9,19.9,69,30.21,10.0,West,9.2,-,N/A,,Mostly Cloudy,260,2012-12-12 06:56:00
2:56 AM,30.0,19.0,64,30.23,10.0,West,10.4,-,N/A,,Overcast,270,2012-12-12 07:56:00
3:56 AM,28.9,18.0,64,30.24,10.0,West,10.4,-,N/A,,Overcast,280,2012-12-12 08:56:00
4:56 AM,28.9,18.0,64,30.26,10.0,West,8.1,16.1,N/A,,Overcast,270,2012-12-12 09:56:00
5:56 AM,28.0,18.0,66,30.30,10.0,WSW,5.8,-,N/A,,Partly Cloudy,250,2012-12-12 10:56:00
6:56 AM,26.1,18.0,71,30.33,10.0,SW,5.8,-,N/A,,Clear,230,2012-12-12 11:56:00
7:56 AM,27.0,17.1,66,30.34,10.0,SW,9.2,-,N/A,,Clear,230,2012-12-12 12:56:00
8:56 AM,28.9,18.0,64,30.35,10.0,SSW,9.2,-,N/A,,Clear,210,2012-12-12 13:56:00
9:56 AM,30.0,19.0,64,30.36,10.0,SW,9.2,-,N/A,,Clear,220,2012-12-12 14:56:00
10:56 AM,33.1,19.9,59,30.38,10.0,WSW,6.9,-,N/A,,Clear,240,2012-12-12 15:56:00
11:56 AM,34.0,19.0,54,30.37,10.0,WNW,9.2,17.3,N/A,,Clear,290,2012-12-12 16:56:00
12:56 PM,35.1,19.0,52,30.37,10.0,SW,8.1,-,N/A,,Clear,230,2012-12-12 17:56:00
1:56 PM,36.0,19.9,52,30.37,10.0,Variable,4.6,-,N/A,,Clear,0,2012-12-12 18:56:00
2:56 PM,37.0,18.0,46,30.38,10.0,West,5.8,-,N/A,,Clear,270,2012-12-12 19:56:00
3:56 PM,35.1,17.1,48,30.39,10.0,West,4.6,-,N/A,,Clear,260,2012-12-12 20:56:00
4:56 PM,32.0,16.0,52,30.40,10.0,West,3.5,-,N/A,,Scattered Clouds,270,2012-12-12 21:56:00
5:56 PM,32.0,16.0,52,30.41,10.0,West,3.5,-,N/A,,Clear,270,2012-12-12 22:56:00
6:56 PM,32.0,16.0,52,30.41,10.0,West,3.5,-,N/A,,Clear,260,2012-12-12 23:56:00
7:56 PM,30.9,16.0,54,30.43,10.0,WSW,3.5,-,N/A,,Clear,240,2012-12-13 00:56:00
8:56 PM,28.0,16.0,61,30.43,10.0,Calm,Calm,-,N/A,,Clear,0,2012-12-13 01:56:00
9:56 PM,28.0,17.1,63,30.44,10.0,Calm,Calm,-,N/A,,Clear,0,2012-12-13 02:56:00
11:56 PM,27.0,17.1,66,30.45,10.0,Calm,Calm,-,N/A,,Clear,0,2012-12-13 04:56:00